Location: Rokycany
(49.7330°N, 13.6000°E)
Time: 21:36:34
(UTC+01:00)

ISS - Visible Passes

Search period start: 09 December 2018 00:00
Search period end: 19 December 2018 00:00
Orbit: 401 x 408 km, 51.6° (Epoch: 10 December)

Date Brightness Start Highest point End Pass type
(mag) Time Alt. Az. Time Alt. Az. Time Alt. Az.
09 Dec -3.8 16:45:49 10° WNW 16:49:05 73° N 16:52:21 10° E visible
09 Dec -2.6 18:22:25 10° W 18:25:27 35° SSW 18:25:52 34° SSW visible
10 Dec -3.2 17:30:08 10° WNW 17:33:20 55° SSW 17:36:18 12° SE visible
10 Dec -0.6 19:07:53 10° WSW 19:09:00 12° SW 19:09:00 12° SW visible
11 Dec -3.7 16:37:53 10° WNW 16:41:09 80° SSW 16:44:25 10° ESE visible
11 Dec -1.2 18:14:50 10° W 18:17:16 19° SW 18:19:41 10° S visible
12 Dec -1.9 17:22:17 10° W 17:25:12 30° SSW 17:28:07 10° SSE visible
14 Dec -0.7 17:14:45 10° W 17:16:55 17° SW 17:19:04 10° S visible
